Regional Weather Roundup
Issued by NWS Jackson, KY

Home | Current Version | Previous Version | Text Only | Print | Product List | Glossary Off
Versions: 1 2 3 4 5 6 7 8 9 10 11 12 13 14 15 16 17 18 19 20 21 22 23 24 25 26 27 28 29 30 31 32 33 34 35 36 37 38 39 40 41 42 43 44 45 46 47 48 49 50

973
ASUS43 KJKL 220110
RWRJKL

EAST KENTUCKY HOURLY WEATHER ROUNDUP
NATIONAL WEATHER SERVICE JACKSON KY
900 PM EDT SAT APR 21 2018

NOTE: "FAIR" INDICATES FEW OR NO CLOUDS BELOW 12,000 FEET WITH
NO SIGNIFICANT WEATHER AND/OR OBSTRUCTIONS TO VISIBILITY.

* THESE REPORTS ARE NOT UNDER NWS QUALITY CONTROL AND MAY NOT
  REPORT WEATHER SUCH AS PRECIPITATION AND FOG.

KYZ079-080-083-085-087-088-110-112-115-119-120-220200
...EASTERN KENTUCKY...

CITY           SKY/WX    TMP DP  RH WIND       PRES   REMARKS
JACKSON          N/A     62  21  20 NE7       30.25R
LONDON           N/A     62  31  31 CALM      30.22S
SOMERSET*        N/A     61  32  33 MISG      30.23S
MONTICELLO*      N/A     54  41  61 NW9       30.24R
WILLIAMSBURG*    N/A     64  30  27 NE5       30.22S
MIDDLESBORO*     N/A     57  42  57 CALM      30.24R
HARLAN APT*      N/A     62  28  27 CALM      30.24R
PIKE CO APT*     N/A     61  21  21 N6        30.25S
BIG SANDY APT*   N/A     60  24  25 NE10      30.25F
MOREHEAD APT*    N/A     59  21  23 CALM      30.29R
ASHLAND*         N/A     57  29  34 NE6       30.29S
$$

KYZ035-036-041-042-044-050-067-078-099-220200
...CENTRAL KENTUCKY...

CITY           SKY/WX    TMP DP  RH WIND       PRES   REMARKS
MT STERLING*     N/A     57  32  38 NE6       30.29R
FLEMING/MASON*   N/A     55  28  36 NE8       30.31R
DANVILLE*        N/A     54  36  50 CALM      30.26R
LEXINGTON        N/A     57  33  40 NE9       30.26S
FRANKFORT        N/A     61  28  28 NE8       30.24F
LOUISVILLE     MOCLDY    63  30  28 NE8       30.25R
GLASGOW*         N/A     62  37  39 N3        30.20S
BOWLING GREEN    N/A     60  39  45 NE3       30.20R
$$

KYZ091>093-OHZ055-061-077-WVZ005-015-034-035-042-220200
...SOUTHERN OHIO/WEST VIRGINIA...

CITY           SKY/WX    TMP DP  RH WIND       PRES   REMARKS
COVINGTON      CLOUDY    55  22  27 NE15      30.30S
COLUMBUS       CLOUDY    53  22  29 NE6       30.34S
DAYTON         CLOUDY    51  25  36 NE10      30.35S
WILMINGTON       N/A     49  33  54 NE8       30.32S
HUNTINGTON       N/A     59  19  21 MISG      30.28R
CHARLESTON       N/A     60  20  21 N6        30.28R
PINEVILLE*       N/A     52  32  47 MISG      30.31R
BECKLEY          N/A     59  15  18 NE5       30.29R
BLUEFIELD        N/A     57  25  29 VRB3      30.29R
LOGAN CO APT*    N/A     61  19  20 CALM      30.26S
$$

VAZ002-007-008-TNZ017-027-036-066-071-220200
...SOUTHWEST VIRGINIA/EAST TENNESSEE...

CITY           SKY/WX    TMP DP  RH WIND       PRES   REMARKS
WISE*            N/A     59  30  33 N5        30.29R
JONESVILLE*      N/A     59  36  41 CALM      30.25S
ABINGDON*        N/A     59  30  33 CALM      30.26R
BRISTOL        MOCLDY    58  34  40 N3        30.24R
MORRISTOWN*    PTCLDY    63  32  31 CALM      30.22S
SEVIERVILLE*   CLEAR     61  36  39 CALM      30.22R
KNOXVILLE      MOCLDY    66  34  30 CALM      30.21R
LAFOLLETTE*    CLEAR     59  39  47 CALM      30.25S
OAK RIDGE        N/A     62  38  40 CALM      30.23R
CROSSVILLE       N/A     61  29  29 CALM      30.24R
NASHVILLE      MOCLDY    68  31  25 SE6       30.18R
$$

...KEY TO REMARKS...
VSB - VISIBILITY IN MILES
WCI - WIND CHILL INDEX
HX  - HEAT INDEX

$$




USA.gov is the U.S. government's official web portal to all federal, state and local government web resources and services.